2021-098A

Last updated on Sun Oct 31 2021 00:02:02 GMT+0000 (Coordinated Universal Time)

1 49379U 21098A 21303.56128472 .00005713 00000-0 11236-3 0 9998 2 49379 51.6450 33.3465 0003827 156.0939 50.5846 15.48847507309573
UTC large
Height (km)
Speed (km/s)
/
Latitude / Longitude
Inclination (degrees)
Orbital Period (minutes)
Azimuth
Elevation
Range (km)
Doppler Factor

Next 0 passes for location: London (51.5072 / 0.1276)

Sorry there are no passes over London.